W7YP Weather Reports


time (UTC)temp
C
wind
direction
speed
KPH
gust
KPH
rain 1hr
cm
rain 24hr
cm
rain mn
cm
humidity
%
barometer
mb
20260906220911 16 175 1.6 6.4 0.00 0.41 0.03 77 1015.9
20260906215824 16 205 0.0 4.8 0.00 0.41 0.03 79 1015.9
20260906215552 15 210 0.0 4.8 0.00 0.41 0.03 80 1016.0
20260906215040 16 282 0.0 1.6 0.00 0.41 0.03 87 1016.0
20260906214319 16 281 0.0 0.0 0.00 0.41 0.03 86 1016.2
20260906214044 16 281 0.0 0.0 0.00 0.41 0.03 86 1016.2
20260906213319 16 281 0.0 0.0 0.00 0.41 0.03 84 1016.0
20260906212814 16 281 0.0 0.0 0.00 0.41 0.03 84 1015.9
20260906212309 16 281 0.0 0.0 0.00 0.41 0.03 83 1016.0
20260906211805 16 281 0.0 0.0 0.00 0.41 0.03 82 1016.4
20260906211304 16 281 0.0 0.0 0.00 0.41 0.03 76 1016.4
20260906210805 17 281 0.0 4.8 0.00 0.41 0.03 82 1016.7
20260906210305 17 281 0.0 6.4 0.00 0.41 0.03 77 1017.0
20260906205805 17 217 1.6 6.4 0.00 0.41 0.03 75 1016.9
20260906205308 17 311 0.0 0.0 0.00 0.41 0.03 83 1016.9
20260906204803 17 311 0.0 0.0 0.00 0.41 0.03 84 1016.7
20260906204249 17 311 0.0 0.0 0.00 0.41 0.03 85 1016.6
20260906204001 17 311 0.0 0.0 0.00 0.41 0.03 84 1016.5
20260906203230 17 311 0.0 0.0 0.00 0.41 0.03 83 1016.3
20260906202959 17 311 0.0 0.0 0.00 0.41 0.03 82 1016.3
20260906202454 17 311 0.0 0.0 0.00 0.41 0.03 80 1016.3
20260906201721 17 311 0.0 0.0 0.00 0.41 0.03 79 1016.4
20260906201216 18 311 0.0 0.0 0.00 0.41 0.03 80 1016.5
20260906200717 18 311 0.0 0.0 0.00 0.41 0.03 80 1016.4
20260906200212 18 311 0.0 0.0 0.00 0.41 0.03 79 1016.4
20260906195714 18 311 0.0 0.0 0.00 0.41 0.03 76 1016.3
20260906195212 18 311 0.0 0.0 0.00 0.41 0.03 74 1016.4
20260906194712 18 311 0.0 0.0 0.00 0.41 0.03 69 1016.3
20260906194212 18 311 0.0 0.0 0.00 0.41 0.03 74 1016.4
20260906193707 18 311 0.0 0.0 0.00 0.41 0.03 74 1016.4
20260906193202 18 311 0.0 0.0 0.00 0.41 0.03 69 1016.4
20260906192700 18 311 0.0 0.0 0.00 0.41 0.03 74 1016.5
20260906192151 18 311 0.0 1.6 0.00 0.41 0.03 68 1016.5
20260906192129 18 311 0.0 1.6 0.00 0.41 0.03 70 1016.6
20260906191618 18 309 0.0 0.0 0.00 0.41 0.03 68 1016.6
20260906190628 18 309 0.0 0.0 0.00 0.41 0.03 70 1016.5
20260906190123 18 309 0.0 1.6 0.00 0.41 0.03 68 1016.6
20260906185623 18 309 0.0 0.0 0.00 0.41 0.03 73 1016.7
20260906185615 18 309 0.0 0.0 0.00 0.41 0.03 77 1016.8
20260906184616 17 309 0.0 0.0 0.00 0.41 0.03 74 1016.7
20260906184328 17 309 0.0 4.8 0.00 0.41 0.03 69 1016.7
20260906183604 17 309 0.0 4.8 0.00 0.41 0.03 70 1016.7
20260906183323 17 315 0.0 1.6 0.00 0.41 0.03 76 1016.9
20260906182559 17 95 0.0 1.6 0.00 0.41 0.03 71 1017.0
20260906182101 17 302 0.0 1.6 0.00 0.41 0.03 71 1017.2
20260906181559 17 302 0.0 1.6 0.00 0.41 0.03 75 1017.3
20260906181055 17 303 0.0 1.6 0.00 0.41 0.03 74 1017.3
20260906180554 17 303 0.0 1.6 0.00 0.41 0.03 79 1017.3
20260906180055 17 304 0.0 0.0 0.00 0.41 0.03 81 1017.3
20260906175550 16 304 0.0 1.6 0.00 0.41 0.03 76 1017.4
20260906175051 16 304 0.0 4.8 0.00 0.41 0.03 74 1017.5
20260906174551 16 304 0.0 4.8 0.00 0.41 0.03 77 1017.5
20260906174046 16 304 0.0 6.4 0.00 0.41 0.03 76 1017.5
20260906173541 16 167 0.0 6.4 0.00 0.41 0.03 78 1017.7
20260906173025 16 173 0.0 3.2 0.00 0.41 0.03 80 1017.7
20260906172528 15 173 0.0 3.2 0.00 0.41 0.03 82 1017.8
20260906172255 15 175 0.0 6.4 0.00 0.41 0.03 84 1017.7
20260906171526 15 175 0.0 6.4 0.00 0.41 0.03 81 1017.8
20260906171250 15 146 0.0 3.2 0.00 0.41 0.03 88 1017.9
20260906170526 14 140 0.0 1.6 0.00 0.41 0.03 89 1017.9
20260906170243 14 140 0.0 0.0 0.00 0.41 0.03 87 1018.1
20260906165506 14 140 0.0 0.0 0.00 0.41 0.03 89 1018.1
20260906164956 14 140 0.0 0.0 0.00 0.41 0.03 89 1018.1
20260906164447 14 140 0.0 0.0 0.00 0.41 0.03 90 1017.9
20260906164207 13 140 0.0 1.6 0.00 0.41 0.03 93 1018.1
20260906163448 13 140 0.0 3.2 0.00 0.41 0.03 94 1018.2
20260906162947 13 140 0.0 3.2 0.00 0.41 0.03 96 1018.2
20260906162447 13 140 0.0 3.2 0.00 0.41 0.03 98 1018.2
20260906161947 12 140 0.0 3.2 0.00 0.41 0.03 98 1018.2
20260906161437 12 134 0.0 3.2 0.00 0.41 0.03 98 1018.2
20260906160933 12 134 0.0 3.2 0.00 0.41 0.03 98 1018.3
20260906160422 12 231 0.0 0.0 0.00 0.41 0.03 98 1018.3
20260906155923 11 231 0.0 0.0 0.00 0.41 0.03 98 1018.4
20260906155425 11 231 0.0 0.0 0.00 0.41 0.03 98 1018.5
20260906154924 11 231 0.0 0.0 0.00 0.41 0.03 98 1018.5
20260906154413 11 231 0.0 3.2 0.00 0.41 0.03 98 1018.5
20260906153916 11 231 0.0 3.2 0.00 0.43 0.03 98 1018.6
20260906153411 11 248 0.0 1.6 0.00 0.43 0.03 98 1018.7
20260906152904 10 248 0.0 0.0 0.00 0.43 0.03 98 1018.7
20260906152404 10 248 0.0 4.8 0.00 0.43 0.03 98 1018.7
20260906151904 10 248 1.6 4.8 0.00 0.43 0.03 98 1018.7
20260906151354 10 255 0.0 1.6 0.00 0.43 0.03 98 1018.7
20260906151115 10 254 0.0 1.6 0.00 0.43 0.03 98 1018.7
20260906150357 10 254 0.0 0.0 0.00 0.43 0.03 98 1018.8
20260906145852 10 254 0.0 0.0 0.00 0.43 0.03 98 1018.9
20260906145340 10 254 0.0 0.0 0.00 0.43 0.03 98 1018.9
20260906145100 10 254 0.0 0.0 0.00 0.43 0.03 98 1018.8
20260906144340 9 254 0.0 0.0 0.00 0.43 0.03 98 1018.8
20260906143835 9 254 0.0 0.0 0.00 0.43 0.03 98 1018.8
20260906143330 9 254 0.0 0.0 0.00 0.43 0.03 98 1018.8
20260906142830 9 254 0.0 0.0 0.00 0.43 0.03 97 1018.9
20260906142333 9 254 0.0 1.6 0.00 0.43 0.03 97 1018.9
20260906141828 9 254 0.0 1.6 0.00 0.43 0.03 97 1018.7
20260906141320 9 254 0.0 0.0 0.00 0.43 0.03 97 1018.6
20260906140821 9 254 0.0 0.0 0.00 0.43 0.03 97 1018.6
20260906140321 9 254 0.0 0.0 0.00 0.43 0.03 97 1018.5
20260906135816 9 254 0.0 0.0 0.00 0.43 0.03 97 1018.5
20260906135316 9 254 0.0 0.0 0.00 0.43 0.03 97 1018.6
20260906134812 9 254 0.0 0.0 0.00 0.43 0.03 97 1018.6
20260906134534 9 254 0.0 0.0 0.00 0.43 0.03 97 1018.5
20260906133811 9 254 0.0 0.0 0.00 0.43 0.03 97 1018.7
20260906133533 9 254 0.0 0.0 0.00 0.43 0.03 97 1018.7
20260906132812 9 254 0.0 0.0 0.00 0.43 0.03 97 1018.7
20260906132307 10 254 0.0 0.0 0.00 0.43 0.03 97 1018.6
20260906131757 10 254 0.0 0.0 0.00 0.43 0.03 97 1018.5
20260906131520 10 254 0.0 0.0 0.00 0.43 0.03 97 1018.4
20260906130758 10 254 0.0 4.8 0.00 0.43 0.03 97 1018.5
20260906130253 10 254 0.0 4.8 0.00 0.43 0.03 97 1018.6
20260906125753 10 255 0.0 0.0 0.00 0.43 0.03 97 1018.2
20260906125249 10 255 0.0 0.0 0.00 0.43 0.03 97 1018.5
20260906124743 10 255 0.0 0.0 0.00 0.43 0.03 97 1018.6
20260906124244 10 255 0.0 1.6 0.00 0.43 0.03 97 1018.7
20260906123738 10 255 0.0 1.6 0.00 0.43 0.03 97 1018.7
20260906123232 10 254 0.0 1.6 0.00 0.43 0.03 97 1018.7
20260906122727 10 255 0.0 0.0 0.00 0.43 0.03 97 1018.6
20260906122220 10 255 0.0 0.0 0.00 0.43 0.03 97 1018.7
20260906121941 10 255 0.0 0.0 0.00 0.43 0.03 97 1018.7
20260906121426 10 255 0.0 0.0 0.00 0.43 0.03 97 1018.6
20260906120700 10 255 0.0 0.0 0.00 0.43 0.03 97 1018.8
20260906120148 10 255 0.0 0.0 0.00 0.43 0.03 97 1018.8
20260906115644 10 255 0.0 0.0 0.00 0.43 0.03 97 1019.1
20260906115406 10 255 0.0 0.0 0.00 0.43 0.03 97 1019.1
20260906114640 10 255 0.0 3.2 0.00 0.43 0.03 97 1018.9
20260906114140 10 255 0.0 3.2 0.00 0.43 0.03 97 1019.4
20260906113640 10 255 0.0 0.0 0.00 0.43 0.03 97 1019.1
20260906113136 10 255 0.0 4.8 0.00 0.43 0.03 97 1019.4
20260906112639 10 255 0.0 4.8 0.00 0.43 0.03 97 1019.4
20260906112126 10 254 0.0 4.8 0.00 0.43 0.03 97 1019.5
20260906111626 10 144 0.0 0.0 0.00 0.43 0.03 97 1019.4
20260906111126 10 144 0.0 0.0 0.00 0.43 0.03 97 1019.5
20260906110623 10 144 0.0 0.0 0.00 0.43 0.03 97 1019.5
20260906110339 10 144 0.0 1.6 0.00 0.43 0.03 97 1019.8
20260906105617 10 144 0.0 1.6 0.00 0.43 0.03 97 1019.7
20260906105117 10 144 0.0 0.0 0.00 0.43 0.03 97 1019.8
20260906104612 10 144 0.0 0.0 0.00 0.43 0.03 97 1019.7
20260906104112 10 144 0.0 0.0 0.00 0.43 0.03 97 1019.4
20260906103612 10 144 0.0 3.2 0.00 0.43 0.03 97 1019.2
20260906103115 10 144 0.0 3.2 0.00 0.43 0.03 97 1019.5
20260906102610 10 144 0.0 0.0 0.00 0.43 0.03 97 1018.9
20260906102053 10 144 0.0 0.0 0.00 0.43 0.03 97 1019.4
20260906101542 10 144 0.0 0.0 0.00 0.43 0.03 97 1019.8
20260906101307 10 144 0.0 0.0 0.00 0.43 0.03 97 1019.9
20260906100543 10 144 0.0 0.0 0.00 0.43 0.03 97 1019.6
20260906100046 10 144 0.0 0.0 0.00 0.43 0.03 97 1019.5
20260906095543 10 144 0.0 0.0 0.00 0.43 0.03 97 1019.5
20260906095039 10 144 0.0 0.0 0.00 0.43 0.03 97 1019.6
20260906094534 10 144 0.0 0.0 0.00 0.43 0.03 97 1019.6
20260906094031 10 144 0.0 0.0 0.00 0.43 0.03 97 1019.7
20260906093529 10 144 0.0 0.0 0.00 0.43 0.03 97 1019.9
20260906093029 10 144 0.0 0.0 0.00 0.43 0.03 97 1019.6
20260906092529 10 144 0.0 0.0 0.00 0.43 0.03 97 1019.6
20260906092032 10 144 0.0 0.0 0.00 0.43 0.03 97 1019.7
20260906091527 10 144 0.0 0.0 0.00 0.43 0.03 97 1019.6
20260906091019 10 144 0.0 0.0 0.00 0.43 0.03 97 1019.6
20260906090510 10 144 0.0 0.0 0.00 0.43 0.03 97 1019.4
20260906090004 10 144 0.0 0.0 0.00 0.43 0.03 97 1019.4
20260906085505 10 144 0.0 0.0 0.00 0.43 0.03 97 1019.3
20260906085005 10 144 0.0 0.0 0.00 0.43 0.03 97 1019.3
20260906084508 10 144 0.0 0.0 0.03 0.43 0.03 97 1019.3
20260906084225 10 144 0.0 0.0 0.03 0.43 0.03 97 1019.5
20260906083456 10 144 0.0 0.0 0.03 0.43 0.03 97 1019.4
20260906082956 10 144 0.0 0.0 0.03 0.43 0.03 97 1019.6
20260906082456 10 144 0.0 0.0 0.03 0.43 0.03 97 1019.7
20260906081946 10 144 0.0 0.0 0.03 0.43 0.03 97 1019.7
20260906081932 10 144 0.0 0.0 0.03 0.43 0.03 97 1019.8
20260906080944 10 144 0.0 0.0 0.03 0.43 0.03 97 1019.8
20260906080437 10 144 0.0 0.0 0.03 0.43 0.03 97 1019.9
20260906075932 10 144 0.0 0.0 0.03 0.43 0.03 97 1019.9
20260906075416 10 144 0.0 0.0 0.03 0.43 0.03 97 1020.1
20260906074911 10 144 0.0 0.0 0.03 0.43 0.03 97 1020.3
20260906074414 10 144 0.0 0.0 0.00 0.41 0.00 97 1020.1
20260906074352 10 144 0.0 0.0 0.00 0.41 0.00 96 1020.1
20260906073635 10 144 0.0 0.0 0.00 0.41 0.00 96 1019.9
20260906072912 10 144 0.0 0.0 0.00 0.41 0.00 96 1019.9
20260906072633 10 144 0.0 0.0 0.00 0.41 0.00 96 1020.1
20260906071900 10 144 0.0 0.0 0.00 0.41 0.00 96 1020.1
20260906071358 10 144 0.0 0.0 0.00 0.41 0.00 96 1020.1
20260906071117 10 144 0.0 0.0 0.00 0.41 0.00 96 1020.1
20260906070353 10 144 0.0 0.0 0.00 0.41 0.00 96 1020.1
20260906070334 10 144 0.0 0.0 0.00 0.41 0.00 96 1020.1
20260906065353 10 144 0.0 0.0 0.00 0.41 0.00 96 1020.1
20260906064853 10 144 0.0 0.0 0.00 0.41 0.00 96 1019.9
20260906064353 10 144 0.0 0.0 0.00 0.41 0.00 96 1020.2
20260906063853 10 144 0.0 0.0 0.00 0.41 0.00 96 1020.1
20260906063349 10 144 0.0 0.0 0.00 0.41 0.00 96 1020.1
20260906062843 10 144 0.0 0.0 0.00 0.41 0.00 96 1020.1
20260906062343 10 144 0.0 0.0 0.00 0.41 0.00 96 1020.1
20260906061839 10 144 0.0 0.0 0.00 0.41 0.00 96 1020.2
20260906061333 10 144 0.0 0.0 0.00 0.41 0.00 96 1020.3
20260906060835 10 144 0.0 0.0 0.00 0.41 0.00 96 1020.3
20260906060557 11 144 0.0 0.0 0.00 0.41 0.00 96 1020.3
20260906055830 11 144 0.0 0.0 0.15 0.41 0.41 96 1020.3
20260906055543 11 144 0.0 0.0 0.36 0.41 0.41 95 1020.2
20260906054827 11 144 0.0 0.0 0.36 0.41 0.41 95 1020.2
20260906054537 11 144 0.0 0.0 0.36 0.41 0.41 96 1020.2
20260906053815 11 144 0.0 0.0 0.36 0.41 0.41 96 1020.1
20260906053315 11 144 0.0 0.0 0.36 0.41 0.41 96 1020.2
20260906052815 11 144 0.0 0.0 0.36 0.41 0.41 96 1020.2
20260906052310 11 144 0.0 1.6 0.36 0.41 0.41 96 1020.3
20260906051806 11 144 0.0 1.6 0.36 0.41 0.41 96 1020.3
20260906051306 11 144 0.0 0.0 0.36 0.41 0.41 96 1020.4
20260906050807 11 144 0.0 3.2 0.36 0.41 0.41 96 1020.5
20260906050306 11 144 0.0 3.2 0.36 0.41 0.41 96 1020.7
20260906045806 11 144 0.0 3.2 0.20 0.25 0.25 96 1020.8
20260906045309 11 144 0.0 0.0 0.00 0.05 0.05 96 1021.1
20260906044803 11 144 0.0 0.0 0.00 0.05 0.05 95 1020.3
20260906044302 11 144 0.0 0.0 0.00 0.05 0.05 95 1020.1
20260906043802 11 144 0.0 0.0 0.00 0.05 0.05 95 1020.2
20260906043302 11 144 0.0 0.0 0.00 0.05 0.05 95 1020.1
20260906042758 11 144 0.0 0.0 0.00 0.05 0.05 95 1019.9
20260906042255 11 144 0.0 1.6 0.00 0.05 0.05 95 1020.1
20260906041733 11 144 0.0 1.6 0.00 0.05 0.05 95 1020.1
20260906041453 11 144 0.0 0.0 0.00 0.05 0.05 95 1019.7
20260906040723 11 144 0.0 0.0 0.00 0.05 0.05 94 1019.9
20260906040450 11 144 0.0 0.0 0.00 0.05 0.05 94 1019.8
20260906035713 11 144 0.0 0.0 0.00 0.05 0.05 94 1019.7
20260906035213 11 144 0.0 0.0 0.00 0.05 0.05 93 1019.7
20260906034708 11 144 0.0 0.0 0.00 0.05 0.05 93 1019.7
20260906034208 11 144 0.0 0.0 0.00 0.05 0.05 93 1019.6
20260906033659 11 144 0.0 0.0 0.00 0.05 0.05 93 1019.6
20260906033156 11 144 0.0 0.0 0.00 0.05 0.05 93 1019.6
20260906032638 11 144 0.0 0.0 0.00 0.05 0.05 93 1019.6
20260906032139 11 144 0.0 4.8 0.00 0.05 0.05 93 1019.4
20260906031634 11 144 0.0 4.8 0.00 0.05 0.05 93 1019.4
20260906031129 11 144 0.0 4.8 0.00 0.05 0.05 92 1019.3
20260906030846 11 144 0.0 3.2 0.00 0.05 0.05 92 1019.3
20260906030120 11 144 0.0 0.0 0.00 0.05 0.05 92 1019.4
20260906025615 11 144 0.0 0.0 0.00 0.05 0.05 92 1019.3
20260906025115 11 144 0.0 0.0 0.00 0.05 0.05 92 1019.1
20260906024610 12 144 0.0 0.0 0.00 0.05 0.05 91 1019.3
20260906024334 12 144 0.0 0.0 0.00 0.05 0.05 91 1019.1
20260906023610 12 144 0.0 0.0 0.00 0.05 0.05 91 1018.9
20260906023110 12 144 0.0 0.0 0.00 0.05 0.05 90 1018.8
20260906022611 12 144 0.0 0.0 0.00 0.05 0.05 90 1018.7
20260906022108 12 144 0.0 0.0 0.00 0.05 0.05 89 1018.8
20260906021601 12 144 0.0 0.0 0.00 0.05 0.05 89 1018.7
20260906021056 13 144 0.0 0.0 0.00 0.05 0.05 89 1018.7
20260906020543 13 144 0.0 0.0 0.00 0.05 0.05 89 1018.8
20260906020250 13 144 0.0 0.0 0.00 0.05 0.05 88 1018.7
20260906015515 13 144 0.0 1.6 0.00 0.05 0.05 88 1018.7
20260906015017 13 144 0.0 1.6 0.00 0.05 0.05 87 1018.7
20260906014515 13 144 0.0 0.0 0.00 0.05 0.05 86 1018.7
20260906014239 13 144 0.0 0.0 0.00 0.05 0.05 86 1018.7
20260906013519 14 144 0.0 0.0 0.00 0.05 0.05 85 1018.8
20260906013017 14 144 0.0 0.0 0.00 0.05 0.05 84 1018.7
20260906012506 15 144 0.0 0.0 0.00 0.05 0.05 82 1018.5
20260906012002 15 144 0.0 0.0 0.00 0.05 0.05 82 1018.5
20260906011456 15 144 0.0 0.0 0.00 0.05 0.05 81 1018.5
20260906010959 16 144 0.0 0.0 0.00 0.05 0.05 81 1018.4
20260906010455 16 144 0.0 0.0 0.00 0.05 0.05 80 1018.4
20260906005932 16 144 0.0 0.0 0.00 0.05 0.05 78 1018.4
20260906005432 17 144 0.0 0.0 0.00 0.05 0.05 77 1018.4
20260906004931 17 144 0.0 0.0 0.00 0.05 0.05 77 1018.3
20260906004436 17 144 0.0 0.0 0.00 0.05 0.05 78 1018.4
20260906003912 18 144 0.0 0.0 0.00 0.05 0.05 76 1018.4
20260906003408 18 144 0.0 0.0 0.00 0.05 0.05 77 1018.4
20260906002903 18 144 0.0 0.0 0.00 0.05 0.05 78 1018.4
20260906002403 18 144 0.0 0.0 0.00 0.05 0.05 77 1018.4
20260906001903 18 144 0.0 0.0 0.00 0.05 0.05 73 1018.5
20260906001358 18 144 0.0 0.0 0.00 0.05 0.05 68 1018.5
20260906000858 18 144 0.0 0.0 0.00 0.05 0.05 71 1018.6
20260906000359 18 144 0.0 0.0 0.03 0.05 0.05 67 1018.6
20260906000114 18 144 0.0 0.0 0.03 0.05 0.05 73 1018.7
20260905235357 18 144 0.0 0.0 0.03 0.05 0.05 76 1018.7
20260905234853 18 144 0.0 0.0 0.03 0.05 0.05 74 1018.7
20260905234354 18 144 0.0 0.0 0.03 0.05 0.05 74 1018.6
20260905233851 18 144 0.0 0.0 0.03 0.05 0.05 69 1018.7
20260905233334 18 144 0.0 0.0 0.03 0.05 0.05 71 1018.7
20260905232833 18 144 0.0 0.0 0.03 0.05 0.05 70 1018.7
20260905232329 18 144 0.0 0.0 0.03 0.05 0.05 72 1018.8
20260905231825 17 144 0.0 0.0 0.03 0.05 0.05 69 1018.9
20260905231321 17 144 0.0 0.0 0.03 0.05 0.05 66 1018.8
20260905231038 17 144 0.0 0.0 0.00 0.03 0.05 69 1018.9
20260905230321 17 144 0.0 0.0 0.00 0.03 0.03 74 1018.9
20260905225820 17 144 0.0 0.0 0.00 0.03 0.03 71 1018.9
20260905225322 16 144 0.0 0.0 0.00 0.03 0.03 75 1018.9
20260905224816 16 144 0.0 0.0 0.00 0.03 0.03 71 1019.1
20260905224319 16 144 0.0 0.0 0.00 0.03 0.03 80 1019.1
20260905223809 16 144 0.0 0.0 0.00 0.03 0.03 83 1019.2
20260905223253 16 144 0.0 0.0 0.00 0.03 0.03 84 1019.2
20260905223016 16 144 0.0 0.0 0.00 0.03 0.03 83 1019.3
20260905222516 16 144 0.0 0.0 0.00 0.03 0.03 82 1019.3
20260905221741 16 144 0.0 0.0 0.00 0.03 0.03 80 1019.3
20260905221730 17 144 0.0 0.0 0.00 0.03 0.03 80 1019.5